This is the latest recevied weather packets stored in our database for station/object DH9NFM-12. If no packets are shown the sender has not sent any weather packets the latest 10 day(s).
| Time | Temp. | Humidity | Pressure | Rain* | Wind** | Luminosity | Snow |
|---|---|---|---|---|---|---|---|
| 1777163550 | 7.22° C | 66% | 1016.6 hPa | 0 mm | - | - | - |
| 1777162926 | 7.22° C | 63% | 1016.7 hPa | 0 mm | - | - | - |
| 1777162301 | 7.22° C | 62% | 1016.7 hPa | 0 mm | - | - | - |
| 1777161676 | 7.78° C | 60% | 1016.6 hPa | 0 mm | - | - | - |
| 1777161052 | 7.22° C | 58% | 1016.6 hPa | 0 mm | - | - | - |
| 1777160427 | 7.78° C | 55% | 1016.6 hPa | 0 mm | - | - | - |
| 1777159802 | 7.22° C | 54% | 1016.5 hPa | 0 mm | - | - | - |
| 1777159178 | 7.78° C | 52% | 1016.5 hPa | 0 mm | - | - | - |
| 1777158553 | 7.78° C | 51% | 1016.4 hPa | 0 mm | - | - | - |
| 1777157928 | 7.78° C | 51% | 1016.4 hPa | 0 mm | - | - | - |
| 1777157304 | 7.22° C | 51% | 1016.4 hPa | 0 mm | - | - | - |
| 1777156679 | 8.33° C | 49% | 1016.3 hPa | 0 mm | - | - | - |
| 1777156054 | 8.33° C | 48% | 1016.3 hPa | 0 mm | - | - | - |
| 1777155430 | 8.33° C | 48% | 1016.1 hPa | 0 mm | - | - | - |
| 1777154805 | 8.89° C | 45% | 1016 hPa | 0 mm | - | - | - |
| 1777154180 | 8.89° C | 44% | 1015.9 hPa | 0 mm | - | - | - |
| 1777153556 | 8.89° C | 44% | 1015.9 hPa | 0 mm | - | - | - |
| 1777152931 | 8.89° C | 44% | 1015.8 hPa | 0 mm | - | - | - |
| 1777152307 | 10° C | 43% | 1015.6 hPa | 0 mm | - | - | - |
| 1777151682 | 9.44° C | 44% | 1015.6 hPa | 0 mm | - | - | - |
| 1777151057 | 10° C | 43% | 1015.5 hPa | 0 mm | - | - | - |
| 1777150433 | 10.56° C | 43% | 1015.5 hPa | 0 mm | - | - | - |
| 1777149808 | 11.11° C | 43% | 1015.3 hPa | 0 mm | - | - | - |
| 1777149183 | 11.11° C | 44% | 1015.3 hPa | 0 mm | - | - | - |
| 1777148559 | 11.67° C | 42% | 1015.2 hPa | 0 mm | - | - | - |
* Rain latest hour (hover to see other rain measurements)
** Current wind speed in m/s (hover to see current wind gust speed)